장바구니 | 주문배송조회 | 마이페이지 | 고객센터
회원가입 아이디/패스워드 찾기



번호 입금자명 주문자명 입금날짜 요청일 입금현황 조회
1541 안효성 날찾나 20170706 07-06 입금확인 4
1540 하경모 걍자 20170705 07-05 입금확인 2
1539 김보영 kbyl3l3o 20170704 07-04 입금확인 2
1538 최우석 웃지않는광대 20170703 07-03 입금확인 2
1537 신충환 ainifeel 20170702 07-02 입금확인 5
1536 신미경 Espresso 20170630 07-01 입금확인 4
1535 장홍재 (1) 장홍재 20170630 06-30 입금확인 3
1534 이종원 dhdhal159 20170629 06-29 입금확인 3
1533 강병수 넨넨 20170628 06-28 입금확인 3
1532 박경민 휘빈아빠 20170621 06-21 입금확인 2
1531 임명묵 ARALE 20170620 06-20 입금확인 2
1530 김민석 도유라 20170620 06-20 입금확인 2
1529 박민우 신문물 20170620 06-20 입금확인 3
1528 이현철 걱정하지마 20170620 06-20 입금확인 2
1527 반승원 (1) 갤록시 20170620 06-20 입금확인 4
1526 한정민 이자나기 20170618 06-18 입금확인 3
1525 가순성 카마로오너 20170613 06-13 입금확인 2
1524 한정민 이자나기 20170613 06-13 입금확인 2
1523 김한영 잿빛우야 20170612 06-12 입금확인 2
1522 허희재 해운대가이 20170608 06-08 입금확인 1
1521 윤진호 s6사랑 20170608 06-08 입금확인 2
1520 문영광 끼끼s 20170607 06-08 입금확인 2
1519 김상우 심쿵설현 20170607 06-07 입금확인 2
1518 이정원 greenheart 20170605 06-05 입금확인 3
1517 유도길 Kinetic 20170604 06-04 입금확인 2
1516 김영원 한음 20170603 06-03 입금확인 3
1515 박정환 하얀셔츠 20170602 06-02 입금확인 1
1514 김상우 심쿵설현 20170531 05-31 입금확인 1
1513 신찬혁 하나마루 20170530 05-30 입금확인 3
1512 김인중 원자운 20170530 05-30 입금확인 4
1511 조종인 미스터이 20170530 05-30 입금확인 3
1510 김인중 원자운 20170526 05-30 입금확인 4
1509 손용선 소울씨 20170529 05-29 입금확인 2
1508 김동현 Psvita500 20170528 05-28 입금확인 2
1507 장강일 뇌류 20170526 05-26 입금확인 3
1506 최건훈 Menoz 20170525 05-25 입금확인 2
   11  12  13  14  15  16  17  18  19  20    
검색



가입사실확인 가입사실확인
사업자정보확인